Voltar ao catálogo

GAOFEN 10R

AtivoCiênciaSSO
NORAD 44622·PAYLOAD·🇨🇳 China

Lançado Oct 4, 2019 de Taiyuan Satellite Launch Center

Loading…

Próximas Passagens (próximas 24 horas)

TLE

AtualizadoSource: Space-Track

Época: Sep 14, 2026, 22:52 UTC

1 44622U 19066A   26257.95341517  .00000870  00000-0  11343-3 0  9997
2 44622  98.0593 212.2290 0005084 189.0929 171.0192 14.83166164375687

Acompanhe GAOFEN 10R em tempo real com AllMySat

Download on the App Store